STARLINK-1090 (44968 NORAD) Tracking and Keplerian Element Data

This shows tracking and keplerian element data for the satellite.

Feedback or suggestion? Click here.




ElementValue
Catalog44968
NameSTARLINK-1090
Epoch Orbit653
Epoch Day48.50001157
Epoch Year2020
RAAN190.8454
Inclination52.9957
Eccentricity0.0001559
Argument of Perigee43.8857
Mean Anonmoly157.3932
Mean Motion15.73186364
Decay Rate0.00213812
L11 44968U 20001BG 20048.50001157 .00213812 00000-0 14899-2 0 9997
L22 44968 52.9957 190.8454 0001559 43.8857 157.3932 15.73186364 6534

Live tracking and technical data element details for STARLINK-1090 (NORAD 44968). STARLINK-1090 can be tracked NOW for your location showing map with azimuth and elevation plus other details from your city location.

Track the satellite on the map from your city or location and see movement details for azimuth, elevation, latitude, longitude, range, height, and movement on the map or in text.







IsCatalogInMostPopularTable: catalog: 44968, numindb: 8
Update: records affected: 1



GetName: 44968 STARLINK-1090

Hit Count: updated at: Tue, 18 Feb 2020 00:10:25 GMT